Voltar ao catálogo

STARLINK-5993

AtivoComunicaçõesVLEO
NORAD 56449·PAYLOAD·🇺🇸 United States

Lançado May 10, 2023 de Vandenberg Space Force Base

Loading…

Próximas Passagens (próximas 24 horas)

TLE

AtualizadoSource: CelesTrak SupGP

Época: Sep 14, 2026, 13:37 UTC

1 56449C 23064B   26257.56784722 -.00031272  00000+0 -26211-2 0  2573
2 56449  70.0027  28.4239 0003268 265.5492  83.1829 14.98340380    18

Acompanhe STARLINK-5993 em tempo real com AllMySat

Download on the App Store